CZ-3B DEB, 40849

Orbit data source: Space-Track

CZ-3B DEB, 40849 is space debris in HEO originally from a launch on Mon, 19 Dec 2011 UTC launched from the Xichang Space Center, China (XSC). Debris objects in space refer to the collection of defunct objects orbiting the Earth. Examples of debris include non-operational satellites, rocket bodies, and fragments generated from explosions, collisions, or faulty payload assembly.

Loading next visibility...
Identifier
40849, 2011-077AE
Orbit
HEO
Country
Flag of CNCN / PRC
Related business
Manufacturer
CALT
Mission
Spacecraft
Bus & Motor
Unknown
Mass
Unknown
Launch date (UTC)
Icon of a cake. It is the launch day of the satellite!2011-12-19 (14 years ago)
Launch vehicle
Unknown
Launch site
Xichang Space Center, China (XSC)
Object type
Payload
Rocket body
Debris
Shape & HBR
Unknown shape, 0.3 m
Radar Cross Section
Medium (>0.1 m² and <1 m²)

Expand to show TLE details & history
Last TLE update: 1 day ago

TLE from 1 day ago
0 CZ-3B DEB
1 40849U 11077AE  25352.44856778 -.00000058  00000-0  10103-2 0  9998
2 40849  26.2135  32.7595 7390191 344.4281   1.7738  1.90638123 88491
Epoch: 2025-12-18T10:45Z
TLE epoch observation values (Epoch: 2025-12-18T10:45:56.256Z)
Latitude
0.00019°
Longitude
143.96768°
Altitude
935.822 km
Speed
9.72 km/s
True Right ascension
02h 11m 01s
True Declination
0° 00' 01"
Sunlit
Object was in full shadow at epoch
Visualization orbit readout
Latitude
Unknown
Longitude
Unknown
Altitude
Unknown
Speed
Unknown
Apparent Right ascension
Unknown
Apparent Declination
Unknown
Sunlit
N/A
Visualization observer readout
Local Sidereal Time
15:33:55
Azimuth
Unknown
Elevation
Unknown
Doppler factor
Unknown
Orbital elements
Apogee altitude
41,406.898 km
Perigee altitude
793.136 km
Semi-major axis
27,478.154 km
Eccentricity
0.73902
Inclination
26.2135°
RAAN
32.7595°
Arg. of periapsis
344.4281°
True anomaly
17.31758°
Mean anomaly
1.7738°
Eccentric anomaly
6.75243°
Mean motion
0.4765 °/min
Orbital period
755.51 mins
BSTAR
0.0010103
Loading maneuver chart data...
Computing Atmospheric mass density...
Loading historical data...
Loading historical data...
Loading historical data...
Loading historical data...
Loading historical data...
Loading historical data...
Loading historical data...

Documentation

Showing up to 5 results
|